QPF
0.03 0.08 0.12 0.06 0.02 0.03 0.03 0.04 0.05 0.06 0.07 0.09 0.11 0.11 0.13 0.12 0.10 0.11 0.10 0.09 0.09 0.10 0.13 0.12 0.11 0.11 0.11 0.10 0.10 0.10 0.11 0.10 0.09 0.09 0.09 0.07 0.07 0.07 0.07 0.07 0.07 0.06 0.07
0.08 0.09 0.13 0.14 0.07 0.04 0.05 0.06 0.06 0.07 0.09 0.13 0.15 0.16 0.18 0.15 0.11 0.11 0.10 0.08 0.07 0.07 0.07 0.09 0.09 0.09 0.08 0.07 0.08 0.10 0.10 0.10 0.11 0.10 0.10 0.09 0.08 0.08 0.08 0.08 0.08 0.08 0.09
0.13 0.13 0.13 0.14 0.11 0.08 0.06 0.09 0.14 0.14 0.14 0.19 0.22 0.19 0.20 0.18 0.15 0.11 0.10 0.08 0.07 0.07 0.06 0.06 0.05 0.05 0.05 0.05 0.05 0.07 0.07 0.07 0.09 0.11 0.11 0.10 0.09 0.10 0.10 0.08 0.08 0.09 0.10
0.11 0.14 0.14 0.17 0.16 0.12 0.09 0.14 0.22 0.18 0.15 0.16 0.18 0.18 0.17 0.20 0.18 0.12 0.09 0.07 0.06 0.04 0.04 0.03 0.03 0.03 0.04 0.04 0.04 0.06 0.06 0.07 0.08 0.09 0.11 0.11 0.11 0.10 0.09 0.09 0.09 0.09 0.10
0.04 0.08 0.16 0.14 0.10 0.08 0.08 0.10 0.14 0.14 0.11 0.10 0.12 0.15 0.15 0.15 0.16 0.13 0.10 0.07 0.05 0.03 0.03 0.03 0.03 0.04 0.05 0.05 0.05 0.06 0.06 0.07 0.09 0.09 0.10 0.10 0.11 0.10 0.09 0.08 0.08 0.08 0.09
0.03 0.04 0.08 0.10 0.08 0.07 0.07 0.08 0.09 0.10 0.11 0.10 0.12 0.12 0.12 0.13 0.11 0.09 0.07 0.06 0.05 0.04 0.03 0.03 0.03 0.04 0.04 0.04 0.04 0.04 0.04 0.06 0.07 0.08 0.09 0.09 0.10 0.10 0.09 0.08 0.08 0.09 0.08
0.03 0.05 0.07 0.08 0.08 0.08 0.09 0.11 0.11 0.10 0.11 0.11 0.13 0.12 0.12 0.12 0.10 0.09 0.08 0.06 0.05 0.04 0.04 0.03 0.03 0.03 0.03 0.03 0.03 0.04 0.04 0.05 0.05 0.06 0.07 0.07 0.09 0.10 0.09 0.08 0.08 0.08 0.07
0.03 0.04 0.05 0.06 0.07 0.08 0.07 0.06 0.06 0.07 0.08 0.08 0.09 0.10 0.11 0.12 0.09 0.09 0.08 0.06 0.06 0.05 0.04 0.02 0.01 0.01 0.02 0.02 0.03 0.03 0.04 0.04 0.05 0.05 0.07 0.07 0.07 0.07 0.07 0.08 0.10 0.09 0.07
0.03 0.03 0.03 0.03 0.03 0.03 0.03 0.04 0.05 0.06 0.07 0.07 0.08 0.08 0.09 0.10 0.09 0.08 0.07 0.06 0.05 0.04 0.03 0.02 0.02 0.02 0.02 0.03 0.03 0.03 0.03 0.04 0.05 0.05 0.06 0.07 0.07 0.07 0.06 0.07 0.09 0.10 0.09
0.03 0.03 0.03 0.02 0.03 0.03 0.04 0.06 0.06 0.07 0.09 0.07 0.07 0.07 0.07 0.06 0.06 0.06 0.05 0.04 0.04 0.03 0.03 0.02 0.03 0.03 0.03 0.03 0.03 0.03 0.04 0.04 0.04 0.04 0.05 0.07 0.08 0.08 0.08 0.08 0.09 0.11 0.11
0.06 0.05 0.04 0.04 0.04 0.06 0.06 0.07 0.08 0.08 0.09 0.10 0.11 0.10 0.07 0.06 0.05 0.05 0.04 0.03 0.03 0.03 0.03 0.03 0.03 0.03 0.03 0.03 0.04 0.04 0.04 0.04 0.03 0.04 0.04 0.05 0.06 0.08 0.08 0.09 0.09 0.10 0.11
0.02 0.03 0.05 0.04 0.04 0.05 0.06 0.09 0.10 0.08 0.11 0.14 0.15 0.16 0.10 0.07 0.06 0.05 0.04 0.04 0.04 0.03 0.03 0.02 0.02 0.02 0.03 0.03 0.04 0.03 0.03 0.04 0.04 0.05 0.06 0.05 0.05 0.06 0.07 0.09 0.10 0.10 0.12
0.03 0.03 0.04 0.05 0.05 0.05 0.05 0.06 0.06 0.08 0.11 0.17 0.16 0.18 0.14 0.09 0.07 0.06 0.06 0.04 0.04 0.03 0.03 0.03 0.02 0.02 0.03 0.03 0.03 0.04 0.03 0.03 0.03 0.04 0.04 0.03 0.04 0.05 0.05 0.06 0.08 0.09 0.09
0.02 0.02 0.03 0.05 0.06 0.06 0.06 0.05 0.06 0.08 0.09 0.15 0.18 0.16 0.15 0.11 0.08 0.06 0.05 0.04 0.04 0.03 0.03 0.02 0.02 0.02 0.02 0.02 0.02 0.03 0.03 0.02 0.03 0.03 0.03 0.03 0.03 0.04 0.04 0.04 0.05 0.06 0.07
0.01 0.01 0.02 0.04 0.06 0.07 0.08 0.08 0.07 0.08 0.08 0.10 0.13 0.12 0.12 0.11 0.09 0.07 0.05 0.05 0.05 0.03 0.03 0.02 0.02 0.02 0.01 0.01 0.01 0.01 0.02 0.01 0.02 0.02 0.03 0.02 0.02 0.02 0.02 0.02 0.04 0.05 0.06
0.01 0.01 0.02 0.03 0.05 0.06 0.07 0.07 0.08 0.06 0.06 0.07 0.08 0.10 0.10 0.09 0.07 0.05 0.05 0.05 0.05 0.04 0.03 0.02 0.02 0.02 0.01 0.00 0.00 0.00 0.01 0.02 0.02 0.02 0.02 0.01 0.01 0.01 0.01 0.01 0.02 0.03 0.04
0.02 0.02 0.02 0.03 0.03 0.05 0.05 0.05 0.05 0.06 0.07 0.07 0.06 0.07 0.08 0.07 0.05 0.04 0.04 0.05 0.04 0.03 0.03 0.03 0.04 0.03 0.02 0.00 0.00 0.00 0.01 0.02 0.02 0.02 0.02 0.02 0.01 0.02 0.02 0.02 0.01 0.01 0.02
0.03 0.03 0.03 0.03 0.03 0.04 0.05 0.06 0.06 0.05 0.07 0.06 0.06 0.05 0.05 0.04 0.05 0.04 0.05 0.05 0.05 0.04 0.04 0.04 0.04 0.03 0.01 0.00 0.00 0.01 0.01 0.02 0.02 0.02 0.02 0.02 0.02 0.02 0.03 0.03 0.02 0.02 0.02
0.02 0.03 0.04 0.03 0.03 0.04 0.05 0.04 0.05 0.04 0.04 0.05 0.05 0.04 0.04 0.03 0.03 0.04 0.04 0.05 0.05 0.04 0.04 0.03 0.03 0.03 0.02 0.00 0.00 0.01 0.02 0.02 0.02 0.02 0.02 0.02 0.03 0.02 0.01 0.03 0.03 0.02 0.02
0.01 0.03 0.04 0.05 0.05 0.06 0.06 0.05 0.05 0.06 0.05 0.04 0.04 0.03 0.03 0.03 0.04 0.04 0.04 0.04 0.04 0.04 0.03 0.03 0.03 0.03 0.02 0.01 0.00 0.01 0.02 0.03 0.03 0.02 0.02 0.02 0.02 0.01 0.02 0.04 0.05 0.04 0.03
0.01 0.03 0.05 0.06 0.07 0.07 0.06 0.06 0.06 0.06 0.04 0.04 0.04 0.03 0.03 0.03 0.03 0.04 0.04 0.04 0.04 0.04 0.04 0.03 0.03 0.03 0.02 0.01 0.00 0.01 0.01 0.02 0.02 0.04 0.04 0.02 0.01 0.01 0.01 0.03 0.06 0.05 0.04
0.01 0.02 0.05 0.08 0.08 0.07 0.06 0.05 0.05 0.05 0.04 0.03 0.03 0.02 0.03 0.02 0.03 0.05 0.04 0.04 0.04 0.04 0.04 0.04 0.04 0.02 0.02 0.01 0.01 0.01 0.01 0.01 0.02 0.03 0.03 0.01 0.00 0.01 0.01 0.02 0.03 0.02 0.02
0.02 0.02 0.03 0.05 0.06 0.06 0.05 0.04 0.03 0.03 0.03 0.03 0.03 0.03 0.03 0.04 0.05 0.05 0.04 0.04 0.04 0.04 0.03 0.03 0.03 0.02 0.01 0.01 0.01 0.01 0.01 0.01 0.02 0.02 0.01 0.01 0.00 0.00 0.00 0.01 0.01 0.01 0.02
0.02 0.03 0.03 0.03 0.03 0.04 0.04 0.04 0.03 0.03 0.04 0.05 0.04 0.04 0.04 0.05 0.06 0.05 0.04 0.04 0.03 0.03 0.03 0.03 0.03 0.02 0.02 0.01 0.01 0.01 0.01 0.01 0.01 0.02 0.01 0.01 0.01 0.01 0.01 0.01 0.01 0.01 0.02
0.02 0.03 0.04 0.03 0.03 0.03 0.03 0.03 0.03 0.03 0.05 0.05 0.04 0.04 0.04 0.05 0.05 0.04 0.03 0.02 0.02 0.01 0.01 0.02 0.02 0.02 0.02 0.01 0.01 0.01 0.01 0.01 0.01 0.01 0.01 0.01 0.02 0.02 0.02 0.02 0.02 0.02 0.02
0.02 0.03 0.03 0.03 0.04 0.04 0.03 0.03 0.03 0.03 0.04 0.04 0.04 0.04 0.04 0.04 0.04 0.03 0.02 0.02 0.01 0.01 0.00 0.00 0.01 0.01 0.01 0.00 0.00 0.00 0.01 0.01 0.01 0.01 0.01 0.01 0.02 0.03 0.03 0.04 0.04 0.03 0.02
MSLP
1002.67 1002.98 1003.39 1003.87 1004.37 1004.88 1005.39 1005.91 1006.43 1006.96 1007.50 1008.04 1008.56 1009.05 1009.50 1009.91 1010.27 1010.60 1010.91 1011.20 1011.49 1011.78 1012.08 1012.39 1012.69 1012.98 1013.27 1013.53 1013.77 1013.98 1014.15 1014.27 1014.31 1014.29 1014.17 1013.97 1013.70 1013.38 1013.05 1012.75 1012.52 1012.40 1012.42
1002.69 1003.11 1003.62 1004.15 1004.67 1005.15 1005.59 1006.00 1006.42 1006.85 1007.30 1007.79 1008.28 1008.77 1009.25 1009.68 1010.07 1010.42 1010.72 1011.00 1011.27 1011.52 1011.78 1012.05 1012.33 1012.61 1012.89 1013.17 1013.44 1013.69 1013.90 1014.07 1014.17 1014.18 1014.11 1013.95 1013.70 1013.39 1013.06 1012.73 1012.47 1012.31 1012.27
1002.99 1003.54 1004.15 1004.73 1005.23 1005.64 1005.97 1006.24 1006.50 1006.78 1007.12 1007.51 1007.96 1008.45 1008.94 1009.42 1009.85 1010.23 1010.55 1010.83 1011.07 1011.30 1011.51 1011.73 1011.97 1012.22 1012.50 1012.78 1013.07 1013.35 1013.61 1013.83 1013.99 1014.07 1014.05 1013.93 1013.73 1013.45 1013.12 1012.80 1012.52 1012.32 1012.23
1003.53 1004.20 1004.89 1005.49 1005.96 1006.28 1006.46 1006.56 1006.63 1006.74 1006.93 1007.22 1007.61 1008.08 1008.60 1009.12 1009.61 1010.04 1010.40 1010.69 1010.92 1011.11 1011.29 1011.46 1011.65 1011.87 1012.12 1012.40 1012.71 1013.03 1013.33 1013.61 1013.83 1013.97 1014.01 1013.95 1013.78 1013.54 1013.24 1012.92 1012.63 1012.40 1012.26
1004.22 1004.98 1005.72 1006.33 1006.75 1006.95 1006.98 1006.89 1006.77 1006.69 1006.73 1006.91 1007.24 1007.70 1008.24 1008.81 1009.36 1009.85 1010.26 1010.57 1010.81 1010.98 1011.12 1011.25 1011.39 1011.58 1011.81 1012.09 1012.41 1012.76 1013.11 1013.43 1013.71 1013.90 1014.00 1013.99 1013.88 1013.67 1013.39 1013.08 1012.78 1012.52 1012.34
1004.95 1005.77 1006.53 1007.11 1007.46 1007.55 1007.43 1007.17 1006.87 1006.63 1006.53 1006.61 1006.88 1007.32 1007.88 1008.50 1009.11 1009.66 1010.12 1010.47 1010.71 1010.88 1010.99 1011.08 1011.20 1011.35 1011.57 1011.85 1012.19 1012.56 1012.95 1013.32 1013.65 1013.89 1014.04 1014.07 1013.99 1013.81 1013.55 1013.26 1012.95 1012.68 1012.45
1005.62 1006.44 1007.18 1007.72 1008.00 1007.99 1007.75 1007.36 1006.92 1006.56 1006.35 1006.34 1006.56 1006.98 1007.56 1008.21 1008.86 1009.46 1009.96 1010.34 1010.60 1010.76 1010.86 1010.94 1011.04 1011.18 1011.39 1011.68 1012.03 1012.44 1012.86 1013.27 1013.63 1013.91 1014.09 1014.15 1014.10 1013.95 1013.71 1013.43 1013.13 1012.84 1012.59
1006.10 1006.90 1007.60 1008.09 1008.31 1008.24 1007.93 1007.46 1006.94 1006.50 1006.22 1006.16 1006.33 1006.73 1007.29 1007.95 1008.62 1009.24 1009.76 1010.15 1010.43 1010.60 1010.71 1010.79 1010.89 1011.04 1011.26 1011.56 1011.93 1012.36 1012.81 1013.24 1013.63 1013.93 1014.14 1014.22 1014.19 1014.06 1013.84 1013.57 1013.28 1013.00 1012.74
1006.35 1007.09 1007.74 1008.19 1008.38 1008.30 1007.97 1007.49 1006.96 1006.50 1006.19 1006.09 1006.23 1006.58 1007.10 1007.72 1008.37 1008.97 1009.49 1009.89 1010.18 1010.36 1010.49 1010.60 1010.72 1010.89 1011.14 1011.47 1011.86 1012.31 1012.77 1013.22 1013.62 1013.94 1014.15 1014.25 1014.23 1014.12 1013.93 1013.68 1013.42 1013.15 1012.90
1006.33 1007.02 1007.63 1008.07 1008.27 1008.21 1007.93 1007.51 1007.03 1006.59 1006.29 1006.18 1006.27 1006.56 1007.01 1007.55 1008.12 1008.67 1009.15 1009.54 1009.84 1010.05 1010.21 1010.36 1010.53 1010.75 1011.03 1011.38 1011.80 1012.26 1012.73 1013.18 1013.58 1013.90 1014.11 1014.22 1014.21 1014.12 1013.95 1013.74 1013.51 1013.28 1013.07
1006.10 1006.75 1007.34 1007.80 1008.04 1008.07 1007.90 1007.58 1007.20 1006.83 1006.56 1006.44 1006.47 1006.67 1007.01 1007.43 1007.90 1008.36 1008.78 1009.14 1009.44 1009.68 1009.90 1010.11 1010.34 1010.62 1010.95 1011.34 1011.77 1012.23 1012.70 1013.13 1013.52 1013.82 1014.03 1014.13 1014.14 1014.07 1013.94 1013.76 1013.58 1013.39 1013.23
1005.77 1006.40 1007.00 1007.49 1007.82 1007.96 1007.92 1007.75 1007.49 1007.21 1006.98 1006.84 1006.81 1006.90 1007.09 1007.37 1007.70 1008.05 1008.40 1008.73 1009.04 1009.33 1009.61 1009.90 1010.21 1010.55 1010.93 1011.35 1011.79 1012.24 1012.68 1013.09 1013.45 1013.73 1013.92 1014.02 1014.04 1013.99 1013.89 1013.76 1013.62 1013.49 1013.39
1005.45 1006.08 1006.71 1007.26 1007.67 1007.94 1008.04 1008.01 1007.88 1007.69 1007.49 1007.32 1007.21 1007.18 1007.22 1007.35 1007.53 1007.77 1008.05 1008.36 1008.69 1009.04 1009.41 1009.79 1010.19 1010.60 1011.03 1011.46 1011.90 1012.32 1012.73 1013.09 1013.40 1013.65 1013.82 1013.92 1013.95 1013.92 1013.84 1013.75 1013.65 1013.58 1013.53
1005.27 1005.91 1006.56 1007.16 1007.66 1008.03 1008.25 1008.34 1008.31 1008.19 1008.00 1007.80 1007.61 1007.45 1007.35 1007.33 1007.39 1007.54 1007.77 1008.08 1008.46 1008.88 1009.34 1009.83 1010.31 1010.79 1011.25 1011.69 1012.10 1012.49 1012.84 1013.15 1013.41 1013.62 1013.77 1013.86 1013.90 1013.88 1013.84 1013.77 1013.71 1013.67 1013.67
1005.29 1005.94 1006.60 1007.22 1007.76 1008.20 1008.50 1008.66 1008.69 1008.60 1008.41 1008.16 1007.89 1007.62 1007.41 1007.27 1007.25 1007.34 1007.57 1007.91 1008.35 1008.87 1009.43 1010.01 1010.57 1011.10 1011.59 1012.02 1012.41 1012.74 1013.03 1013.28 1013.49 1013.66 1013.79 1013.88 1013.92 1013.92 1013.89 1013.85 1013.82 1013.81 1013.83
1005.54 1006.18 1006.82 1007.42 1007.95 1008.38 1008.69 1008.87 1008.91 1008.81 1008.60 1008.30 1007.96 1007.62 1007.33 1007.14 1007.08 1007.17 1007.42 1007.83 1008.36 1008.98 1009.64 1010.31 1010.95 1011.52 1012.01 1012.42 1012.76 1013.04 1013.27 1013.46 1013.63 1013.77 1013.89 1013.97 1014.03 1014.05 1014.04 1014.02 1013.99 1013.99 1014.03
1005.98 1006.58 1007.16 1007.68 1008.14 1008.50 1008.76 1008.89 1008.88 1008.74 1008.49 1008.15 1007.77 1007.40 1007.09 1006.89 1006.85 1007.00 1007.32 1007.82 1008.45 1009.18 1009.94 1010.68 1011.37 1011.96 1012.45 1012.83 1013.12 1013.35 1013.52 1013.67 1013.80 1013.93 1014.04 1014.14 1014.22 1014.26 1014.27 1014.26 1014.25 1014.24 1014.28
1006.54 1007.06 1007.53 1007.93 1008.26 1008.49 1008.63 1008.65 1008.56 1008.36 1008.06 1007.70 1007.31 1006.95 1006.67 1006.54 1006.58 1006.81 1007.25 1007.85 1008.60 1009.42 1010.26 1011.06 1011.77 1012.37 1012.84 1013.19 1013.43 1013.61 1013.74 1013.86 1013.98 1014.11 1014.24 1014.37 1014.47 1014.55 1014.58 1014.58 1014.57 1014.56 1014.57
1007.11 1007.54 1007.87 1008.10 1008.26 1008.32 1008.30 1008.19 1007.99 1007.72 1007.37 1007.00 1006.64 1006.34 1006.15 1006.11 1006.27 1006.64 1007.20 1007.92 1008.77 1009.67 1010.57 1011.40 1012.12 1012.70 1013.14 1013.45 1013.66 1013.80 1013.91 1014.03 1014.15 1014.30 1014.46 1014.62 1014.76 1014.87 1014.92 1014.94 1014.92 1014.90 1014.89
1007.61 1007.93 1008.11 1008.18 1008.14 1008.03 1007.84 1007.59 1007.28 1006.93 1006.56 1006.20 1005.90 1005.69 1005.62 1005.72 1006.02 1006.52 1007.21 1008.04 1008.97 1009.92 1010.85 1011.68 1012.39 1012.94 1013.35 1013.63 1013.81 1013.94 1014.04 1014.16 1014.30 1014.48 1014.68 1014.87 1015.05 1015.18 1015.26 1015.28 1015.27 1015.23 1015.20
1008.00 1008.20 1008.25 1008.16 1007.96 1007.68 1007.34 1006.96 1006.56 1006.16 1005.79 1005.47 1005.25 1005.15 1005.21 1005.46 1005.90 1006.54 1007.33 1008.25 1009.23 1010.21 1011.13 1011.94 1012.62 1013.13 1013.50 1013.75 1013.92 1014.04 1014.15 1014.28 1014.45 1014.65 1014.88 1015.10 1015.30 1015.45 1015.53 1015.56 1015.54 1015.49 1015.43
1008.25 1008.38 1008.32 1008.12 1007.79 1007.39 1006.94 1006.46 1006.00 1005.58 1005.22 1004.97 1004.83 1004.85 1005.05 1005.43 1006.00 1006.75 1007.62 1008.59 1009.58 1010.56 1011.45 1012.22 1012.84 1013.32 1013.65 1013.88 1014.03 1014.15 1014.27 1014.42 1014.61 1014.83 1015.06 1015.29 1015.49 1015.64 1015.72 1015.74 1015.70 1015.63 1015.56
1008.40 1008.49 1008.38 1008.11 1007.72 1007.25 1006.74 1006.22 1005.74 1005.32 1005.01 1004.82 1004.78 1004.91 1005.22 1005.71 1006.38 1007.19 1008.11 1009.09 1010.07 1011.00 1011.84 1012.55 1013.12 1013.54 1013.84 1014.05 1014.19 1014.32 1014.45 1014.60 1014.79 1015.00 1015.23 1015.44 1015.61 1015.73 1015.79 1015.78 1015.73 1015.64 1015.55
1008.50 1008.58 1008.48 1008.21 1007.81 1007.33 1006.81 1006.30 1005.84 1005.46 1005.20 1005.08 1005.12 1005.34 1005.74 1006.31 1007.03 1007.87 1008.79 1009.74 1010.68 1011.55 1012.31 1012.95 1013.46 1013.83 1014.10 1014.29 1014.43 1014.55 1014.68 1014.83 1015.00 1015.19 1015.37 1015.54 1015.66 1015.73 1015.74 1015.70 1015.62 1015.51 1015.40
1008.59 1008.71 1008.65 1008.43 1008.08 1007.64 1007.17 1006.71 1006.30 1005.97 1005.77 1005.71 1005.82 1006.10 1006.55 1007.16 1007.89 1008.72 1009.61 1010.50 1011.37 1012.15 1012.84 1013.40 1013.84 1014.17 1014.41 1014.58 1014.71 1014.83 1014.95 1015.08 1015.22 1015.36 1015.48 1015.58 1015.64 1015.64 1015.59 1015.50 1015.39 1015.26 1015.14
1008.71 1008.90 1008.91 1008.77 1008.50 1008.15 1007.76 1007.37 1007.02 1006.76 1006.62 1006.62 1006.77 1007.08 1007.54 1008.15 1008.86 1009.65 1010.47 1011.29 1012.06 1012.75 1013.35 1013.84 1014.22 1014.51 1014.72 1014.87 1015.00 1015.10 1015.21 1015.31 1015.40 1015.49 1015.54 1015.57 1015.54 1015.47 1015.37 1015.23 1015.09 1014.95 1014.83
Thickness
5772 5767 5761 5758 5753 5747 5743 5740 5736 5732 5728 5724 5720 5716 5713 5712 5710 5708 5704 5701 5700 5698 5696 5696 5694 5694 5692 5691 5690 5688 5687 5686 5687 5684 5684 5689 5693 5695 5695 5695 5695 5695 5695
5764 5758 5753 5748 5741 5738 5735 5732 5729 5726 5722 5719 5716 5713 5710 5706 5705 5703 5699 5697 5695 5693 5692 5689 5688 5688 5686 5684 5683 5682 5679 5680 5680 5677 5674 5675 5680 5686 5690 5690 5689 5689 5689
5757 5751 5745 5739 5733 5729 5727 5726 5723 5720 5716 5713 5711 5707 5703 5699 5696 5694 5692 5691 5689 5687 5685 5684 5682 5681 5680 5678 5677 5676 5674 5672 5674 5674 5670 5666 5667 5672 5679 5681 5682 5683 5682
5752 5743 5737 5732 5727 5722 5722 5720 5716 5712 5709 5706 5703 5698 5693 5689 5688 5687 5686 5685 5683 5682 5680 5678 5676 5674 5673 5672 5671 5670 5668 5667 5666 5668 5668 5666 5666 5662 5664 5670 5674 5675 5675
5750 5739 5733 5727 5723 5718 5716 5712 5707 5703 5700 5698 5695 5690 5686 5684 5682 5680 5678 5677 5677 5676 5674 5672 5670 5668 5666 5666 5664 5663 5662 5661 5660 5660 5660 5660 5661 5662 5658 5658 5663 5666 5668
5744 5735 5728 5722 5716 5712 5708 5704 5699 5696 5692 5689 5686 5682 5679 5676 5674 5671 5671 5669 5669 5668 5667 5666 5663 5661 5659 5659 5658 5657 5656 5654 5654 5653 5653 5653 5654 5655 5655 5654 5655 5656 5660
5736 5727 5720 5715 5709 5704 5701 5696 5692 5688 5686 5682 5679 5676 5673 5669 5667 5664 5663 5661 5660 5659 5658 5657 5655 5654 5653 5653 5652 5651 5650 5649 5647 5647 5647 5648 5650 5651 5650 5648 5649 5650 5652
5727 5722 5716 5710 5703 5698 5694 5690 5687 5682 5679 5676 5673 5670 5667 5664 5661 5659 5656 5654 5653 5651 5650 5649 5648 5647 5646 5646 5646 5645 5644 5644 5643 5642 5642 5642 5644 5645 5645 5644 5642 5641 5644
5719 5714 5710 5704 5698 5692 5689 5685 5681 5677 5673 5671 5667 5664 5660 5657 5655 5652 5650 5648 5646 5645 5644 5642 5641 5640 5639 5638 5638 5638 5638 5638 5637 5637 5636 5637 5638 5639 5640 5641 5640 5637 5636
5713 5708 5702 5698 5693 5688 5684 5679 5675 5671 5668 5664 5661 5658 5654 5651 5648 5645 5642 5641 5640 5638 5637 5636 5634 5633 5632 5632 5632 5631 5631 5631 5631 5631 5631 5631 5632 5633 5634 5635 5636 5636 5634
5702 5698 5695 5692 5688 5683 5678 5673 5669 5665 5661 5657 5654 5651 5648 5645 5642 5640 5638 5635 5634 5632 5631 5630 5628 5627 5627 5626 5625 5625 5625 5625 5625 5625 5625 5625 5626 5627 5628 5629 5630 5631 5631
5697 5693 5690 5686 5681 5676 5671 5667 5663 5659 5655 5652 5649 5645 5642 5639 5636 5633 5631 5629 5627 5626 5625 5624 5623 5622 5621 5620 5619 5619 5619 5619 5619 5619 5619 5619 5620 5621 5622 5622 5623 5624 5625
5690 5686 5682 5678 5674 5669 5664 5660 5656 5653 5650 5646 5642 5639 5635 5632 5629 5627 5625 5623 5621 5620 5618 5618 5617 5616 5615 5614 5614 5613 5613 5613 5613 5612 5612 5612 5613 5614 5615 5616 5616 5617 5619
5683 5679 5674 5670 5666 5661 5657 5654 5650 5646 5643 5640 5636 5632 5629 5625 5623 5621 5618 5617 5615 5614 5613 5612 5611 5610 5609 5608 5607 5607 5606 5606 5606 5606 5605 5606 5606 5607 5608 5609 5610 5611 5611
5678 5673 5668 5662 5658 5654 5650 5648 5644 5641 5637 5633 5628 5625 5623 5620 5617 5614 5613 5611 5610 5608 5607 5606 5605 5604 5603 5600 5598 5599 5600 5599 5599 5599 5599 5599 5600 5601 5601 5603 5604 5605 5605
5673 5668 5662 5657 5652 5648 5645 5641 5638 5635 5631 5626 5623 5620 5618 5615 5612 5610 5607 5605 5603 5602 5600 5599 5597 5596 5594 5591 5590 5590 5592 5592 5593 5593 5593 5594 5595 5595 5596 5597 5597 5598 5599
5668 5662 5657 5652 5647 5644 5640 5636 5633 5630 5625 5621 5618 5616 5614 5611 5607 5605 5602 5599 5597 5595 5593 5592 5590 5588 5585 5584 5583 5584 5585 5586 5587 5587 5587 5589 5590 5591 5592 5592 5592 5593 5594
5664 5658 5653 5648 5644 5640 5636 5633 5629 5625 5621 5617 5614 5611 5609 5607 5604 5600 5597 5594 5591 5589 5587 5586 5584 5582 5580 5578 5577 5578 5580 5581 5581 5581 5582 5582 5583 5584 5585 5587 5588 5589 5589
5660 5655 5650 5645 5641 5636 5633 5629 5624 5620 5617 5613 5610 5608 5605 5602 5599 5596 5593 5590 5587 5585 5583 5582 5579 5577 5575 5573 5572 5572 5576 5577 5577 5577 5576 5577 5577 5576 5578 5580 5582 5583 5584
5655 5650 5645 5641 5636 5633 5629 5624 5620 5616 5613 5611 5608 5605 5602 5599 5595 5592 5590 5587 5585 5582 5580 5578 5576 5574 5572 5569 5568 5568 5571 5572 5572 5572 5572 5570 5571 5571 5572 5574 5576 5577 5578
5650 5646 5642 5637 5633 5629 5626 5621 5617 5613 5611 5609 5605 5602 5599 5596 5594 5590 5587 5585 5583 5581 5578 5576 5574 5572 5569 5567 5565 5564 5565 5566 5567 5568 5568 5566 5566 5567 5568 5569 5570 5571 5572
5646 5642 5637 5633 5629 5626 5622 5618 5615 5612 5610 5607 5604 5600 5598 5595 5593 5589 5586 5584 5582 5580 5578 5575 5573 5571 5568 5566 5563 5562 5561 5561 5563 5564 5564 5563 5563 5564 5565 5566 5567 5568 5569
5642 5638 5634 5630 5626 5623 5621 5616 5613 5611 5608 5605 5601 5599 5596 5594 5591 5588 5585 5584 5582 5580 5578 5576 5573 5571 5569 5565 5562 5560 5559 5559 5559 5560 5559 5559 5560 5562 5564 5565 5566 5566 5568
5638 5635 5631 5627 5623 5621 5618 5615 5613 5610 5607 5603 5600 5598 5595 5593 5590 5588 5586 5584 5582 5580 5577 5575 5573 5572 5569 5566 5562 5560 5559 5558 5557 5557 5558 5558 5560 5561 5562 5564 5566 5567 5569
5635 5632 5629 5625 5622 5619 5617 5615 5612 5609 5605 5602 5599 5598 5596 5594 5590 5587 5585 5583 5581 5578 5575 5574 5572 5570 5567 5563 5559 5558 5558 5557 5555 5554 5557 5560 5562 5564 5565 5567 5569 5570 5570
5634 5630 5627 5624 5621 5619 5616 5614 5612 5609 5605 5602 5600 5598 5596 5594 5591 5588 5584 5581 5579 5576 5574 5572 5569 5568 5564 5561 5559 5557 5556 5555 5554 5554 5558 5561 5563 5565 5567 5568 5569 5570 5571